This demonstration page uses our WeatherBlox Daily Observations layout. Learn more.

41.55636, -103.73856

Hourly Observations for August 17, 2019

Temp ( °F °C ) Dew Point ( °F °C ) Humidity (%) Winds ( mph kmh ) Pressure ( in mb ) Visibility ( mi km ) Precip ( " mm )
12:58 am 00:58 Mostly Cloudy 69 20.6 60 15.4 72 72 SE 13 20 29.82 1010 10 16.0934 0.07 1.778
1:58 am 01:58 Clear 66 19 57 14.1 73 73 ESE 9 15 29.8 1009 10 16.0934 0 0
2:58 am 02:58 Mostly Clear 63 17.1 55 12.5 75 75 ESE 12 19 29.86 1011 10 16.0934 0 0
3:58 am 03:58 Clear 63 17 55 12.5 75 75 S 8 13 29.83 1010 10 16.0934 0 0
4:58 am 04:58 Mostly Clear 61 16 53 11.6 75 75 Calm 29.83 1010 10 16.0934 0 0
5:58 am 05:58 Mostly Clear 62 16.5 53 11.6 73 73 E 7 11 29.81 1009 10 16.0934 0 0
6:58 am 06:58 Clear 61 16 53 11.4 74 74 S 5 7 29.78 1008 10 16.0934 0 0
7:58 am 07:58 Clear 62 16.8 52 11.3 70 70 SSW 20 31 29.74 1007 10 16.0934 0 0
8:58 am 08:58 Clear 61 16 52 11.1 73 73 SSW 21 33 29.72 1006 10 16.0934 0 0
9:58 am 09:58 Clear 62 16.6 53 11.9 74 74 WSW 9 15 29.73 1007 10 16.0934 0 0
10:58 am 10:58 Clear 58 14.2 50 10.1 77 77 WSW 10 17 29.74 1007 10 16.0934 0 0
11:58 am 11:58 Clear 55 12.8 46 8 73 73 W 13 20 29.75 1008 10 16.0934 0 0
12:58 pm 12:58 Sunny 55 12.5 44 6.4 67 67 W 6 9 29.78 1009 10 16.0934 0 0
1:58 pm 13:58 Sunny 63 17 40 4.5 44 44 W 10 17 29.78 1009 10 16.0934 0 0
2:58 pm 14:58 Sunny 69 20.8 39 3.9 33 33 WNW 13 20 29.76 1008 10 16.0934 0 0
3:58 pm 15:58 Sunny 74 23.2 40 4.3 29 29 W 13 20 29.75 1008 10 16.0934 0 0
4:58 pm 16:58 Sunny 80 26.6 40 4.2 24 24 NW 9 15 29.73 1007 10 16.0934 0 0
5:58 pm 17:58 Sunny 84 28.8 39 3.8 20 20 WNW 9 15 29.7 1006 10 16.0934 0 0
6:58 pm 18:58 Sunny 85 29.5 40 4.5 20 20 NW 9 15 29.67 1005 10 16.0934 0 0
7:58 pm 19:58 Mostly Cloudy 85 29.5 40 4.4 20 20 SW 16 26 29.66 1005 10 16.0934 0 0
8:58 pm 20:58 Mostly Cloudy with Light Rain 82 27.9 31 -0.3 16 16 SSW 9 15 29.66 1004 10 16.0934 0 0
9:58 pm 21:58 Mostly Cloudy 83 28.3 39 4 21 21 W 13 20 29.66 1004 10 16.0934 0 0
10:58 pm 22:58 Mostly Cloudy 82 27.9 29 -1.4 15 15 SW 18 30 29.66 1004 10 16.0934 0 0
11:58 pm 23:58 Mostly Sunny 84 29.1 36 2.3 18 18 WSW 10 17 29.64 1004 10 16.0934 0 0

Powered by AerisWeather